Location: Asarope
(8.2500°N, 4.4833°E)
Time: 14:41:08
(UTC+00:00)

Cosmos 1633 Rocket - Pass Details

Date: 07 June 2020
Orbit: 608 x 623 km, 82.5° (Epoch: 07 July)

Event Time Altitude Azimuth Distance (km) Brightness Sun altitude
Exits shadow 04:08:11 - 174° (S) 2,533 6.0 -17.7°
Reaches altitude 10° 04:09:36 10° 171° (S) 1,964 5.4 -17.4°
Maximum altitude 04:13:51 56° 93° (E) 728 3.7 -16.4°
Drops below altitude 10° 04:18:05 10° 15° (NNE) 1,954 6.2 -15.5°
Sets 04:20:19 0° 11° (N) 2,855 7.0 -15.0°
